Flag for Colombia Weather past 2 weeks in Manizales, Colombia

Now
75 °F

Passing clouds.


Feels Like: 77 °F
Forecast: 54 / 79 °F
Wind: 3 mph from Northwest

Location: Pereira / Matecana

Current Time: Aug 29, 2015 at 8:44:17 PM

Latest Report: Aug 29, 2015 at 8:00 PM


Visibility: N/A

Pressure: 29.97 "Hg (23.43 "Hg at 2139m altitude)

Humidity: 65%

Dew point: 63 °F

Location of ManizalesLocation

Historic Weather in Manizales — Graph

°F

Manizales temperature yesterday

Maximum temperature yesterday: 84 °F (at 1:00 PM)
Minimum temperature yesterday: 66 °F (at 6:00 AM)
Average temperature yesterday: 74 °F

Past Weeks' High & Low Weather Summary

 TemperatureHumidityPressure
High88 °F (Aug 20, 2:00 PM)100% (Aug 21, 7:00 AM)30.13 "Hg (Aug 21, 7:00 AM)
Low66 °F (Aug 15, 5:00 AM)38% (Aug 29, 3:00 PM)29.89 "Hg (Aug 20, 4:00 PM)
Average74 °F73%30.02 "Hg
* Reported Aug 14 7:00 PM — Aug 29 7:00 PM, Manizales, Weather by CustomWeather, © 2015

Note: Actual official high and low records may vary slightly from our data, if they occured in-between our weather recording intervals... More about our weather records

Advertising

Manizales weather history for previous 24 hours

 ConditionsComfort  
Time TempWeatherWind HumidityBarometerVisibility
7:00 PM
Sat, Aug 29
81 °FPassing clouds.7 mph48%29.94 "HgN/A
6:00 PM84 °FScattered clouds.9 mph43%29.91 "HgN/A
5:00 PM86 °FScattered clouds.14 mph40%29.89 "HgN/A
4:00 PM88 °FScattered clouds.12 mph38%29.89 "HgN/A
3:00 PM88 °FScattered clouds.8 mph38%29.91 "HgN/A
2:00 PM86 °FScattered clouds.9 mph52%29.95 "HgN/A
1:00 PM86 °FPassing clouds.7 mph52%29.98 "HgN/A
12:00 PM82 °FPassing clouds.8 mph58%30.01 "HgN/A
11:00 AM81 °FScattered clouds.6 mph62%30.04 "HgN/A
10:00 AM79 °FPassing clouds.3 mph65%30.07 "HgN/A
9:00 AM75 °FPassing clouds.5 mph69%30.07 "HgN/A
8:00 AM72 °FPassing clouds.2 mph78%30.06 "HgN/A
7:00 AM68 °FPassing clouds.3 mph83%30.03 "HgN/A
6:00 AM66 °FPassing clouds.2 mph88%30.01 "HgN/A
5:00 AM66 °FPassing clouds.2 mph88%30.00 "HgN/A
12:00 AM68 °FPassing clouds.7 mph83%30.02 "HgN/A
11:00 PM
Fri, Aug 28
70 °FPassing clouds.9 mph78%30.03 "HgN/A
10:00 PM70 °FPassing clouds.7 mph83%30.00 "HgN/A
9:00 PM72 °FPassing clouds.2 mph83%29.98 "HgN/A
8:00 PM73 °FPassing clouds.2 mph74%29.97 "HgN/A
Weather by CustomWeather, © 2015

See weather overviewHow to use our weather pages